CSC8926 ZSAM-ZUUU

Flight info

Callsign CSC8926
Flight time 2h 38m
Altitude 38100
Route NUSPA W598 DABER W155 VETIB H25 WYN G586 QP B330 ELKAL W179 IGNAK
Aircraft A20N/M-SDE2E3FGHIRWXY/LB1

Departure

Time 2026-04-30 07:35
Airport Xiamen Gaoqi International Airport (ZSAM)

Arrival

Time 2026-04-30 10:13
Airport Chengdu Shuangliu International Airport (ZUUU)
Time Latitude Longitude Altitude Speed Heading
2026-04-30 07:19 24.54716 118.14006 71 ft 0 kts 51°
2026-04-30 07:26 24.54715 118.14004 71 ft 2 kts 52°
2026-04-30 07:27 24.54705 118.13991 71 ft 2 kts 51°
2026-04-30 07:27 24.54699 118.13982 71 ft 1 kts 52°
2026-04-30 07:27 24.54689 118.13971 71 ft 2 kts 33°
2026-04-30 07:27 24.54676 118.13963 71 ft 2 kts 18°
2026-04-30 07:28 24.54661 118.13960 71 ft 2 kts
2026-04-30 07:28 24.54646 118.13962 71 ft 2 kts 345°
2026-04-30 07:28 24.54632 118.13968 71 ft 2 kts 328°
2026-04-30 07:28 24.54626 118.13972 71 ft 1 kts 318°
2026-04-30 07:29 24.54623 118.13975 71 ft 0 kts 320°
2026-04-30 07:31 24.54634 118.13964 71 ft 9 kts 314°
2026-04-30 07:31 24.54706 118.13879 71 ft 18 kts 323°
2026-04-30 07:31 24.54845 118.13761 71 ft 17 kts 323°
2026-04-30 07:31 24.54843 118.13655 71 ft 17 kts 232°
2026-04-30 07:32 24.54744 118.13517 71 ft 32 kts 233°
2026-04-30 07:32 24.54549 118.13245 71 ft 54 kts 232°
2026-04-30 07:32 24.54327 118.12933 71 ft 50 kts 231°
2026-04-30 07:32 24.54115 118.12637 71 ft 47 kts 231°
2026-04-30 07:33 24.53921 118.12366 71 ft 43 kts 232°
2026-04-30 07:33 24.53737 118.12109 71 ft 42 kts 231°
2026-04-30 07:33 24.53560 118.11860 71 ft 40 kts 232°
2026-04-30 07:33 24.53424 118.11671 71 ft 21 kts 232°
2026-04-30 07:34 24.53417 118.11520 71 ft 21 kts 290°
2026-04-30 07:34 24.53525 118.11519 71 ft 19 kts 53°
2026-04-30 07:34 24.53695 118.11757 71 ft 72 kts 52°
2026-04-30 07:34 24.54143 118.12386 72 ft 134 kts 52°
2026-04-30 07:35 24.54826 118.13327 201 ft 170 kts 51°
2026-04-30 07:35 24.55566 118.14354 790 ft 174 kts 51°
2026-04-30 07:35 24.56296 118.15373 1537 ft 171 kts 52°
2026-04-30 07:35 24.57029 118.16397 2135 ft 176 kts 51°
2026-04-30 07:36 24.57822 118.17509 2532 ft 192 kts 51°
2026-04-30 07:36 24.58659 118.18683 3015 ft 204 kts 51°
2026-04-30 07:36 24.59585 118.19980 3415 ft 223 kts 50°
2026-04-30 07:36 24.60575 118.21366 3935 ft 237 kts 50°
2026-04-30 07:37 24.61587 118.22804 4598 ft 244 kts 54°
2026-04-30 07:37 24.62176 118.24557 5233 ft 254 kts 90°
2026-04-30 07:37 24.61709 118.26408 5896 ft 257 kts 127°
2026-04-30 07:37 24.60369 118.27606 6550 ft 254 kts 165°
2026-04-30 07:38 24.58656 118.27760 7247 ft 248 kts 193°
2026-04-30 07:38 24.56961 118.27354 7983 ft 250 kts 197°
2026-04-30 07:38 24.55337 118.26783 8676 ft 248 kts 214°
2026-04-30 07:38 24.54081 118.25539 9390 ft 244 kts 234°
2026-04-30 07:39 24.53082 118.24041 10093 ft 244 kts 237°
2026-04-30 07:39 24.52088 118.22526 10742 ft 247 kts 236°
2026-04-30 07:39 24.51056 118.21014 11365 ft 250 kts 235°
2026-04-30 07:39 24.49974 118.19453 11745 ft 263 kts 235°
2026-04-30 07:40 24.48832 118.17818 12030 ft 279 kts 234°
2026-04-30 07:40 24.47608 118.16076 12310 ft 295 kts 234°
2026-04-30 07:40 24.46335 118.14271 12576 ft 311 kts 234°
2026-04-30 07:40 24.44959 118.12328 12839 ft 326 kts 234°
2026-04-30 07:41 24.43544 118.10332 13081 ft 340 kts 234°
2026-04-30 07:41 24.42071 118.08259 13308 ft 353 kts 234°
2026-04-30 07:41 24.40544 118.06110 13685 ft 361 kts 234°
2026-04-30 07:41 24.38985 118.03919 14218 ft 364 kts 234°
2026-04-30 07:42 24.37438 118.01745 14738 ft 366 kts 234°
2026-04-30 07:42 24.35861 117.99528 15233 ft 370 kts 234°
2026-04-30 07:42 24.34264 117.97285 15709 ft 373 kts 234°
2026-04-30 07:42 24.32678 117.95062 16185 ft 375 kts 234°
2026-04-30 07:43 24.31060 117.92796 16627 ft 378 kts 234°
2026-04-30 07:43 24.29448 117.90538 17093 ft 380 kts 234°
2026-04-30 07:43 24.27819 117.88258 17515 ft 383 kts 234°
2026-04-30 07:43 24.26149 117.85934 17936 ft 386 kts 233°
2026-04-30 07:44 24.24391 117.83702 18341 ft 390 kts 231°
2026-04-30 07:44 24.22475 117.81531 18754 ft 393 kts 228°
2026-04-30 07:44 24.20541 117.79446 19160 ft 396 kts 228°
2026-04-30 07:44 24.18564 117.77319 19546 ft 398 kts 228°
2026-04-30 07:45 24.16591 117.75200 19696 ft 400 kts 228°
2026-04-30 07:45 24.14596 117.73056 19703 ft 399 kts 228°
2026-04-30 07:45 24.12613 117.70927 19704 ft 399 kts 228°
2026-04-30 07:45 24.10665 117.68837 19712 ft 399 kts 227°
2026-04-30 07:46 24.08665 117.66689 19712 ft 399 kts 229°
2026-04-30 07:46 24.06986 117.64291 19704 ft 394 kts 244°
2026-04-30 07:46 24.06051 117.61507 19712 ft 391 kts 259°
2026-04-30 07:46 24.05871 117.58549 19716 ft 391 kts 274°
2026-04-30 07:47 24.06193 117.55602 19720 ft 391 kts 277°
2026-04-30 07:47 24.06545 117.52683 19721 ft 390 kts 277°
2026-04-30 07:47 24.06899 117.49736 19724 ft 391 kts 277°
2026-04-30 07:47 24.07252 117.46781 19897 ft 396 kts 277°
2026-04-30 07:48 24.07608 117.43789 20352 ft 396 kts 277°
2026-04-30 07:48 24.07961 117.40798 20800 ft 397 kts 277°
2026-04-30 07:48 24.08309 117.37831 21186 ft 399 kts 277°
2026-04-30 07:48 24.08664 117.34811 21569 ft 401 kts 277°
2026-04-30 07:49 24.09020 117.31769 21948 ft 404 kts 277°
2026-04-30 07:49 24.09375 117.28730 22321 ft 406 kts 277°
2026-04-30 07:49 24.09733 117.25661 22693 ft 409 kts 277°
2026-04-30 07:49 24.10097 117.22536 23062 ft 412 kts 277°
2026-04-30 07:50 24.10460 117.19425 23439 ft 414 kts 277°
2026-04-30 07:50 24.10820 117.16323 23823 ft 416 kts 277°
2026-04-30 07:50 24.11184 117.13178 24207 ft 418 kts 277°
2026-04-30 07:50 24.11550 117.10014 24595 ft 420 kts 277°
2026-04-30 07:51 24.11914 117.06853 24956 ft 422 kts 277°
2026-04-30 07:51 24.12280 117.03668 25307 ft 424 kts 277°
2026-04-30 07:51 24.12648 117.00467 25656 ft 426 kts 276°
2026-04-30 07:51 24.13016 116.97257 25989 ft 429 kts 276°
2026-04-30 07:52 24.13387 116.94007 26325 ft 431 kts 276°
2026-04-30 07:52 24.13757 116.90776 26650 ft 433 kts 276°
2026-04-30 07:52 24.14118 116.87472 26982 ft 434 kts 275°
2026-04-30 07:52 24.14349 116.84222 27297 ft 435 kts 272°
2026-04-30 07:53 24.14494 116.80916 27578 ft 437 kts 272°
2026-04-30 07:53 24.14633 116.77576 27848 ft 439 kts 272°
2026-04-30 07:53 24.14769 116.74247 28136 ft 439 kts 272°
2026-04-30 07:53 24.14904 116.70945 28509 ft 438 kts 272°
2026-04-30 07:54 24.15039 116.67615 28885 ft 436 kts 272°
2026-04-30 07:54 24.15172 116.64315 29222 ft 436 kts 272°
2026-04-30 07:54 24.15305 116.61003 29564 ft 434 kts 272°
2026-04-30 07:54 24.15437 116.57704 29892 ft 434 kts 272°
2026-04-30 07:55 24.15567 116.54431 30189 ft 433 kts 272°
2026-04-30 07:55 24.15698 116.51135 30488 ft 432 kts 272°
2026-04-30 07:55 24.15828 116.47852 30786 ft 431 kts 272°
2026-04-30 07:55 24.15956 116.44592 31073 ft 430 kts 272°
2026-04-30 07:56 24.16082 116.41376 31348 ft 429 kts 272°
2026-04-30 07:56 24.16211 116.38088 31616 ft 428 kts 272°
2026-04-30 07:56 24.16338 116.34852 31872 ft 428 kts 272°
2026-04-30 07:56 24.16464 116.31622 32152 ft 427 kts 272°
2026-04-30 07:57 24.16590 116.28382 32446 ft 425 kts 271°
2026-04-30 07:57 24.16715 116.25166 32724 ft 424 kts 271°
2026-04-30 07:57 24.16839 116.21960 32990 ft 423 kts 271°
2026-04-30 07:57 24.16960 116.18765 33255 ft 422 kts 271°
2026-04-30 07:58 24.17082 116.15556 33504 ft 421 kts 271°
2026-04-30 07:58 24.17201 116.12386 33759 ft 420 kts 272°
2026-04-30 07:58 24.17341 116.09184 34021 ft 419 kts 273°
2026-04-30 07:58 24.17594 116.06013 34281 ft 418 kts 275°
2026-04-30 07:59 24.17870 116.02894 34504 ft 417 kts 275°
2026-04-30 07:59 24.18155 115.99740 34713 ft 417 kts 275°
2026-04-30 07:59 24.18455 115.96581 34932 ft 416 kts 275°
2026-04-30 08:00 24.19056 115.90298 35365 ft 414 kts 275°
2026-04-30 08:00 24.19350 115.87201 35544 ft 413 kts 275°
2026-04-30 08:00 24.19644 115.84081 35715 ft 413 kts 275°
2026-04-30 08:00 24.19937 115.80960 35868 ft 413 kts 275°
2026-04-30 08:01 24.20231 115.77833 36028 ft 413 kts 275°
2026-04-30 08:01 24.20519 115.74739 36165 ft 413 kts 275°
2026-04-30 08:01 24.20811 115.71613 36314 ft 412 kts 275°
2026-04-30 08:01 24.21100 115.68514 36433 ft 412 kts 275°
2026-04-30 08:02 24.21654 115.62242 36601 ft 414 kts 275°
2026-04-30 08:02 24.21921 115.59134 36694 ft 414 kts 275°
2026-04-30 08:03 24.22460 115.52852 36856 ft 415 kts 275°
2026-04-30 08:03 24.23000 115.46551 37007 ft 416 kts 275°
2026-04-30 08:04 24.23545 115.40284 37167 ft 416 kts 275°
2026-04-30 08:04 24.24101 115.33981 37273 ft 417 kts 275°
2026-04-30 08:05 24.24650 115.27724 37422 ft 417 kts 275°
2026-04-30 08:05 24.25210 115.21323 37548 ft 418 kts 275°
2026-04-30 08:06 24.25759 115.15014 37645 ft 419 kts 275°
2026-04-30 08:06 24.26311 115.08634 37771 ft 419 kts 275°
2026-04-30 08:07 24.26862 115.02235 37856 ft 420 kts 275°
2026-04-30 08:07 24.27404 114.95885 37948 ft 420 kts 275°
2026-04-30 08:08 24.27945 114.89544 38024 ft 421 kts 275°
2026-04-30 08:08 24.28486 114.83182 38103 ft 421 kts 275°
2026-04-30 08:09 24.29034 114.76814 38127 ft 421 kts 275°
2026-04-30 08:09 24.29583 114.70410 38128 ft 421 kts 275°
2026-04-30 08:10 24.30135 114.64047 38130 ft 422 kts 275°
2026-04-30 08:10 24.30689 114.57872 38129 ft 422 kts 275°
2026-04-30 08:11 24.31258 114.51481 38132 ft 422 kts 275°
2026-04-30 08:11 24.31856 114.45106 38136 ft 422 kts 275°
2026-04-30 08:12 24.32466 114.38741 38137 ft 422 kts 276°
2026-04-30 08:12 24.33032 114.32332 38142 ft 421 kts 274°
2026-04-30 08:13 24.33538 114.25973 38142 ft 420 kts 274°
2026-04-30 08:13 24.34090 114.19598 38140 ft 420 kts 276°
2026-04-30 08:14 24.34768 114.13267 38140 ft 420 kts 276°
2026-04-30 08:14 24.35444 114.06904 38137 ft 421 kts 276°
2026-04-30 08:15 24.36118 114.00530 38137 ft 421 kts 276°
2026-04-30 08:15 24.36785 113.94177 38137 ft 421 kts 276°
2026-04-30 08:16 24.37450 113.87824 38135 ft 421 kts 276°
2026-04-30 08:16 24.38110 113.81480 38128 ft 421 kts 276°
2026-04-30 08:17 24.38773 113.75091 38125 ft 421 kts 276°
2026-04-30 08:17 24.39426 113.68752 38126 ft 421 kts 276°
2026-04-30 08:18 24.40084 113.62363 38128 ft 421 kts 276°
2026-04-30 08:18 24.40731 113.56034 38135 ft 421 kts 276°
2026-04-30 08:19 24.41380 113.49667 38133 ft 421 kts 276°
2026-04-30 08:19 24.42026 113.43310 38142 ft 420 kts 276°
2026-04-30 08:20 24.42681 113.36933 38149 ft 421 kts 276°
2026-04-30 08:20 24.43337 113.30589 38158 ft 421 kts 276°
2026-04-30 08:21 24.43993 113.24210 38162 ft 421 kts 276°
2026-04-30 08:21 24.44644 113.17843 38161 ft 421 kts 276°
2026-04-30 08:22 24.45293 113.11485 38162 ft 421 kts 276°
2026-04-30 08:22 24.45934 113.05154 38153 ft 421 kts 276°
2026-04-30 08:23 24.46578 112.98754 38149 ft 421 kts 276°
2026-04-30 08:23 24.47214 112.92369 38150 ft 422 kts 276°
2026-04-30 08:24 24.47845 112.86008 38148 ft 421 kts 276°
2026-04-30 08:24 24.48472 112.79650 38141 ft 421 kts 276°
2026-04-30 08:25 24.49100 112.73261 38140 ft 421 kts 276°
2026-04-30 08:25 24.49726 112.66893 38135 ft 421 kts 276°
2026-04-30 08:26 24.50351 112.60526 38136 ft 421 kts 276°
2026-04-30 08:26 24.50973 112.54145 38133 ft 422 kts 276°
2026-04-30 08:27 24.51594 112.47746 38132 ft 421 kts 276°
2026-04-30 08:27 24.52211 112.41363 38132 ft 422 kts 276°
2026-04-30 08:28 24.52826 112.34981 38129 ft 422 kts 276°
2026-04-30 08:28 24.53440 112.28555 38128 ft 422 kts 276°
2026-04-30 08:29 24.54051 112.22156 38123 ft 422 kts 276°
2026-04-30 08:29 24.54656 112.15784 38131 ft 422 kts 276°
2026-04-30 08:30 24.55261 112.09389 38136 ft 422 kts 276°
2026-04-30 08:30 24.55863 112.02990 38137 ft 423 kts 276°
2026-04-30 08:31 24.56461 111.96605 38145 ft 422 kts 276°
2026-04-30 08:31 24.57054 111.90221 38139 ft 422 kts 276°
2026-04-30 08:32 24.57648 111.83829 38134 ft 422 kts 276°
2026-04-30 08:32 24.58240 111.77412 38133 ft 422 kts 276°
2026-04-30 08:33 24.58830 111.71005 38128 ft 422 kts 276°
2026-04-30 08:33 24.59415 111.64620 38125 ft 422 kts 276°
2026-04-30 08:34 24.59994 111.58254 38119 ft 421 kts 276°
2026-04-30 08:34 24.60576 111.51833 38110 ft 422 kts 276°
2026-04-30 08:35 24.61153 111.45428 38106 ft 422 kts 276°
2026-04-30 08:35 24.61727 111.39033 38111 ft 422 kts 276°
2026-04-30 08:36 24.62297 111.32652 38117 ft 422 kts 276°
2026-04-30 08:36 24.62864 111.26222 38122 ft 422 kts 276°
2026-04-30 08:37 24.63416 111.19836 38122 ft 422 kts 276°
2026-04-30 08:37 24.63965 111.13466 38128 ft 422 kts 275°
2026-04-30 08:38 24.64515 111.07043 38132 ft 421 kts 275°
2026-04-30 08:38 24.65059 111.00652 38136 ft 421 kts 276°
2026-04-30 08:39 24.65599 110.94303 38134 ft 421 kts 276°
2026-04-30 08:39 24.66159 110.87886 38131 ft 421 kts 278°
2026-04-30 08:40 24.67524 110.81673 38125 ft 421 kts 289°
2026-04-30 08:40 24.70053 110.75877 38122 ft 423 kts 300°
2026-04-30 08:41 24.73658 110.70743 38119 ft 426 kts 311°
2026-04-30 08:41 24.77907 110.66178 38122 ft 427 kts 313°
2026-04-30 08:42 24.82181 110.61682 38122 ft 426 kts 313°
2026-04-30 08:42 24.86465 110.57172 38130 ft 426 kts 313°
2026-04-30 08:43 24.90750 110.52652 38132 ft 425 kts 313°
2026-04-30 08:43 24.94994 110.48171 38131 ft 426 kts 313°
2026-04-30 08:44 24.99277 110.43641 38136 ft 425 kts 313°
2026-04-30 08:44 25.03550 110.39125 38129 ft 425 kts 313°
2026-04-30 08:45 25.07800 110.34642 38126 ft 425 kts 313°
2026-04-30 08:45 25.12057 110.30139 38121 ft 424 kts 313°
2026-04-30 08:46 25.16315 110.25633 38117 ft 424 kts 313°
2026-04-30 08:46 25.20551 110.21143 38117 ft 424 kts 313°
2026-04-30 08:47 25.24834 110.16660 38119 ft 424 kts 313°
2026-04-30 08:47 25.29138 110.12160 38120 ft 424 kts 313°
2026-04-30 08:48 25.33414 110.07681 38121 ft 424 kts 313°
2026-04-30 08:48 25.37663 110.03222 38128 ft 424 kts 313°
2026-04-30 08:49 25.41927 109.98744 38131 ft 423 kts 313°
2026-04-30 08:49 25.46208 109.94242 38135 ft 422 kts 313°
2026-04-30 08:50 25.50453 109.89773 38139 ft 423 kts 313°
2026-04-30 08:50 25.54708 109.85287 38140 ft 423 kts 313°
2026-04-30 08:51 25.58957 109.80804 38140 ft 422 kts 313°
2026-04-30 08:51 25.63218 109.76300 38137 ft 422 kts 313°
2026-04-30 08:52 25.67463 109.71810 38133 ft 422 kts 313°
2026-04-30 08:52 25.71657 109.67295 38123 ft 421 kts 310°
2026-04-30 08:53 25.75306 109.62287 38119 ft 419 kts 302°
2026-04-30 08:53 25.78238 109.56692 38117 ft 417 kts 294°
2026-04-30 08:54 25.80340 109.50749 38117 ft 416 kts 287°
2026-04-30 08:54 25.81986 109.44604 38121 ft 416 kts 286°
2026-04-30 08:55 25.83598 109.38489 38125 ft 415 kts 286°
2026-04-30 08:55 25.85211 109.32348 38126 ft 414 kts 286°
2026-04-30 08:56 25.86813 109.26241 38124 ft 414 kts 285°
2026-04-30 08:56 25.88420 109.20100 38124 ft 413 kts 286°
2026-04-30 08:57 25.90010 109.14010 38123 ft 413 kts 286°
2026-04-30 08:57 25.91610 109.07870 38123 ft 414 kts 286°
2026-04-30 08:58 25.93221 109.01730 38124 ft 414 kts 286°
2026-04-30 08:58 25.94844 108.95646 38124 ft 414 kts 286°
2026-04-30 08:59 25.96477 108.89503 38128 ft 414 kts 286°
2026-04-30 08:59 25.98098 108.83398 38132 ft 414 kts 286°
2026-04-30 09:00 25.99712 108.77290 38135 ft 414 kts 286°
2026-04-30 09:00 26.01335 108.71149 38138 ft 414 kts 286°
2026-04-30 09:01 26.02961 108.65044 38139 ft 413 kts 287°
2026-04-30 09:01 26.04593 108.58911 38136 ft 413 kts 286°
2026-04-30 09:02 26.07010 108.49786 38129 ft 411 kts 287°
2026-04-30 09:02 26.08636 108.43683 38132 ft 412 kts 288°
2026-04-30 09:03 26.10624 108.37720 38148 ft 412 kts 292°
2026-04-30 09:03 26.13044 108.31963 38153 ft 413 kts 294°
2026-04-30 09:04 26.15537 108.26196 38163 ft 413 kts 294°
2026-04-30 09:04 26.18009 108.20478 38166 ft 412 kts 294°
2026-04-30 09:05 26.20488 108.14732 38171 ft 413 kts 294°
2026-04-30 09:05 26.22971 108.08978 38167 ft 412 kts 294°
2026-04-30 09:06 26.25428 108.03267 38163 ft 412 kts 294°
2026-04-30 09:06 26.27909 107.97498 38158 ft 413 kts 294°
2026-04-30 09:07 26.30376 107.91755 38155 ft 412 kts 294°
2026-04-30 09:07 26.32844 107.86000 38152 ft 413 kts 294°
2026-04-30 09:08 26.35313 107.80230 38148 ft 413 kts 294°
2026-04-30 09:08 26.37780 107.74458 38147 ft 414 kts 294°
2026-04-30 09:09 26.40253 107.68669 38147 ft 413 kts 294°
2026-04-30 09:09 26.42718 107.62892 38150 ft 413 kts 294°
2026-04-30 09:10 26.45175 107.57119 38152 ft 414 kts 294°
2026-04-30 09:10 26.47647 107.51304 38153 ft 414 kts 294°
2026-04-30 09:11 26.50097 107.45525 38168 ft 413 kts 294°
2026-04-30 09:11 26.52542 107.39746 38168 ft 413 kts 294°
2026-04-30 09:12 26.54995 107.33946 38176 ft 412 kts 294°
2026-04-30 09:12 26.57445 107.28165 38172 ft 413 kts 294°
2026-04-30 09:13 26.59893 107.22376 38171 ft 414 kts 294°
2026-04-30 09:13 26.62333 107.16593 38164 ft 414 kts 294°
2026-04-30 09:14 26.64795 107.10780 38167 ft 415 kts 294°
2026-04-30 09:14 26.67275 107.04956 38164 ft 414 kts 294°
2026-04-30 09:15 26.69735 106.99161 38164 ft 413 kts 294°
2026-04-30 09:15 26.72189 106.93368 38171 ft 414 kts 294°
2026-04-30 09:16 26.74644 106.87579 38172 ft 415 kts 295°
2026-04-30 09:16 26.77502 106.81959 38179 ft 415 kts 301°
2026-04-30 09:17 26.80915 106.76780 38173 ft 417 kts 307°
2026-04-30 09:17 26.84904 106.72015 38177 ft 420 kts 314°
2026-04-30 09:18 26.89248 106.67681 38174 ft 421 kts 315°
2026-04-30 09:18 26.93650 106.63364 38174 ft 422 kts 315°
2026-04-30 09:19 26.98058 106.59042 38175 ft 422 kts 315°
2026-04-30 09:19 27.02469 106.54714 38173 ft 422 kts 315°
2026-04-30 09:20 27.06876 106.50382 38171 ft 421 kts 315°
2026-04-30 09:20 27.11308 106.46023 38171 ft 422 kts 315°
2026-04-30 09:21 27.15680 106.41712 38168 ft 421 kts 315°
2026-04-30 09:21 27.20094 106.37362 38169 ft 421 kts 315°
2026-04-30 09:22 27.24531 106.33047 38163 ft 421 kts 315°
2026-04-30 09:22 27.28933 106.28773 38168 ft 421 kts 315°
2026-04-30 09:23 27.33376 106.24446 38168 ft 421 kts 315°
2026-04-30 09:23 27.37806 106.20125 38164 ft 422 kts 315°
2026-04-30 09:24 27.42220 106.15814 38155 ft 422 kts 315°
2026-04-30 09:24 27.46639 106.11494 38148 ft 422 kts 315°
2026-04-30 09:25 27.51062 106.07167 38141 ft 422 kts 315°
2026-04-30 09:25 27.55486 106.02831 38133 ft 422 kts 315°
2026-04-30 09:26 27.59901 105.98496 38132 ft 422 kts 315°
2026-04-30 09:26 27.64323 105.94151 38118 ft 422 kts 315°
2026-04-30 09:27 27.68548 105.89602 38114 ft 419 kts 308°
2026-04-30 09:27 27.72059 105.84418 38107 ft 415 kts 300°
2026-04-30 09:28 27.74782 105.78709 38106 ft 413 kts 292°
2026-04-30 09:28 27.76719 105.72650 38105 ft 412 kts 287°
2026-04-30 09:29 27.78456 105.66469 38105 ft 413 kts 287°
2026-04-30 09:29 27.80321 105.60375 38100 ft 414 kts 291°
2026-04-30 09:30 27.82599 105.54378 37977 ft 415 kts 292°
2026-04-30 09:30 27.83743 105.51418 37675 ft 413 kts 292°
2026-04-30 09:30 27.84880 105.48473 37377 ft 410 kts 292°
2026-04-30 09:31 27.86019 105.45527 37080 ft 407 kts 292°
2026-04-30 09:31 27.87139 105.42628 36784 ft 405 kts 292°
2026-04-30 09:31 27.88279 105.39702 36488 ft 406 kts 294°
2026-04-30 09:31 27.89511 105.36830 36190 ft 408 kts 295°
2026-04-30 09:32 27.90777 105.33981 35901 ft 408 kts 295°
2026-04-30 09:32 27.92052 105.31119 35609 ft 409 kts 295°
2026-04-30 09:32 27.93327 105.28256 35313 ft 409 kts 295°
2026-04-30 09:32 27.94615 105.25362 35017 ft 410 kts 295°
2026-04-30 09:33 27.95922 105.22534 34722 ft 412 kts 298°
2026-04-30 09:33 27.97524 105.19831 34433 ft 416 kts 305°
2026-04-30 09:33 27.99408 105.17352 34142 ft 419 kts 311°
2026-04-30 09:33 28.01577 105.15108 33852 ft 423 kts 318°
2026-04-30 09:34 28.03986 105.13161 33570 ft 427 kts 323°
2026-04-30 09:34 28.06474 105.11386 33294 ft 428 kts 324°
2026-04-30 09:34 28.09000 105.09621 33006 ft 429 kts 324°
2026-04-30 09:34 28.11579 105.07824 32746 ft 430 kts 324°
2026-04-30 09:35 28.14129 105.06046 32491 ft 431 kts 324°
2026-04-30 09:35 28.16670 105.04273 32238 ft 433 kts 324°
2026-04-30 09:35 28.19248 105.02472 31980 ft 434 kts 324°
2026-04-30 09:35 28.21811 105.00679 31724 ft 435 kts 324°
2026-04-30 09:36 28.24380 104.98879 31473 ft 437 kts 324°
2026-04-30 09:36 28.26988 104.97051 31217 ft 438 kts 324°
2026-04-30 09:36 28.29559 104.95248 30967 ft 440 kts 324°
2026-04-30 09:36 28.32167 104.93414 30714 ft 441 kts 324°
2026-04-30 09:37 28.34796 104.91569 30460 ft 442 kts 324°
2026-04-30 09:37 28.37397 104.89741 30208 ft 443 kts 324°
2026-04-30 09:37 28.40010 104.87907 29956 ft 445 kts 324°
2026-04-30 09:37 28.42655 104.86061 29702 ft 445 kts 324°
2026-04-30 09:38 28.45311 104.84209 29448 ft 445 kts 324°
2026-04-30 09:38 28.47931 104.82380 29197 ft 447 kts 324°
2026-04-30 09:38 28.50586 104.80524 28942 ft 448 kts 324°
2026-04-30 09:38 28.53241 104.78667 28693 ft 449 kts 324°
2026-04-30 09:39 28.55898 104.76807 28443 ft 450 kts 324°
2026-04-30 09:39 28.58586 104.74923 28191 ft 451 kts 324°
2026-04-30 09:39 28.61239 104.73062 27942 ft 452 kts 324°
2026-04-30 09:39 28.63909 104.71187 27693 ft 451 kts 324°
2026-04-30 09:40 28.66593 104.69302 27443 ft 449 kts 324°
2026-04-30 09:40 28.69251 104.67435 27194 ft 448 kts 324°
2026-04-30 09:40 28.71891 104.65579 26946 ft 447 kts 324°
2026-04-30 09:40 28.74536 104.63718 26696 ft 445 kts 324°
2026-04-30 09:41 28.77153 104.61874 26449 ft 444 kts 324°
2026-04-30 09:41 28.79778 104.60025 26200 ft 441 kts 324°
2026-04-30 09:41 28.82359 104.58204 25955 ft 441 kts 324°
2026-04-30 09:41 28.84974 104.56358 25706 ft 439 kts 324°
2026-04-30 09:42 28.87582 104.54514 25457 ft 438 kts 324°
2026-04-30 09:42 28.90136 104.52698 25212 ft 436 kts 323°
2026-04-30 09:42 28.92733 104.50848 24961 ft 435 kts 323°
2026-04-30 09:42 28.95292 104.49026 24713 ft 434 kts 324°
2026-04-30 09:43 28.97830 104.47217 24468 ft 433 kts 324°
2026-04-30 09:43 29.00233 104.45503 24235 ft 431 kts 324°
2026-04-30 09:43 29.02748 104.43709 23989 ft 429 kts 324°
2026-04-30 09:43 29.05276 104.41903 23745 ft 428 kts 324°
2026-04-30 09:44 29.07796 104.40102 23500 ft 426 kts 324°
2026-04-30 09:44 29.10314 104.38301 23258 ft 425 kts 324°
2026-04-30 09:44 29.12840 104.36492 23015 ft 424 kts 324°
2026-04-30 09:44 29.15307 104.34726 22775 ft 423 kts 324°
2026-04-30 09:45 29.17805 104.32935 22534 ft 422 kts 324°
2026-04-30 09:45 29.20291 104.31154 22298 ft 421 kts 324°
2026-04-30 09:45 29.22774 104.29373 22060 ft 420 kts 324°
2026-04-30 09:45 29.25253 104.27594 21826 ft 420 kts 324°
2026-04-30 09:46 29.27387 104.26027 21621 ft 419 kts 322°
2026-04-30 09:46 29.29787 104.24139 21388 ft 416 kts 321°
2026-04-30 09:46 29.32159 104.22238 21154 ft 416 kts 321°
2026-04-30 09:46 29.34524 104.20335 20919 ft 415 kts 321°
2026-04-30 09:47 29.36873 104.18447 20686 ft 414 kts 321°
2026-04-30 09:47 29.39234 104.16547 20451 ft 413 kts 321°
2026-04-30 09:47 29.41569 104.14662 20219 ft 414 kts 321°
2026-04-30 09:47 29.43949 104.12746 19981 ft 413 kts 321°
2026-04-30 09:48 29.46283 104.10866 19748 ft 412 kts 321°
2026-04-30 09:48 29.48643 104.08965 19513 ft 411 kts 321°
2026-04-30 09:48 29.50964 104.07092 19280 ft 411 kts 322°
2026-04-30 09:48 29.53293 104.05212 19045 ft 410 kts 321°
2026-04-30 09:49 29.55650 104.03307 18804 ft 410 kts 322°
2026-04-30 09:49 29.57969 104.01434 18566 ft 409 kts 322°
2026-04-30 09:49 29.60284 103.99563 18331 ft 408 kts 321°
2026-04-30 09:49 29.62685 103.97878 17931 ft 409 kts 332°
2026-04-30 09:50 29.65376 103.96646 17080 ft 416 kts 338°
2026-04-30 09:50 29.68094 103.95561 16197 ft 422 kts 339°
2026-04-30 09:50 29.70866 103.94449 15560 ft 420 kts 338°
2026-04-30 09:50 29.73618 103.93310 15079 ft 413 kts 338°
2026-04-30 09:51 29.76269 103.92185 14622 ft 406 kts 338°
2026-04-30 09:51 29.78899 103.91050 14165 ft 400 kts 338°
2026-04-30 09:51 29.81483 103.89922 13732 ft 393 kts 337°
2026-04-30 09:51 29.84004 103.88815 13359 ft 386 kts 337°
2026-04-30 09:52 29.86512 103.87709 13001 ft 378 kts 337°
2026-04-30 09:52 29.88939 103.86637 12665 ft 370 kts 337°
2026-04-30 09:52 29.91300 103.85593 12329 ft 363 kts 338°
2026-04-30 09:52 29.93631 103.84563 12043 ft 355 kts 338°
2026-04-30 09:53 29.95972 103.83524 11337 ft 361 kts 338°
2026-04-30 09:53 29.98273 103.82503 10978 ft 355 kts 338°
2026-04-30 09:53 30.00567 103.81486 10606 ft 350 kts 338°
2026-04-30 09:53 30.02832 103.80482 10244 ft 344 kts 339°
2026-04-30 09:54 30.05037 103.79504 9878 ft 339 kts 339°
2026-04-30 09:54 30.07242 103.78526 9532 ft 334 kts 339°
2026-04-30 09:54 30.09404 103.77566 9178 ft 329 kts 339°
2026-04-30 09:54 30.11518 103.76627 8832 ft 324 kts 339°
2026-04-30 09:55 30.13641 103.75935 8465 ft 318 kts 357°
2026-04-30 09:55 30.15809 103.76221 8121 ft 310 kts 21°
2026-04-30 09:55 30.17755 103.77236 7799 ft 304 kts 28°
2026-04-30 09:55 30.19618 103.78336 7475 ft 300 kts 27°
2026-04-30 09:56 30.21498 103.79371 7180 ft 294 kts 26°
2026-04-30 09:56 30.23352 103.80318 6902 ft 289 kts 25°
2026-04-30 09:56 30.25180 103.81207 6630 ft 283 kts 24°
2026-04-30 09:56 30.26998 103.82066 6343 ft 278 kts 24°
2026-04-30 09:57 30.28790 103.82902 6037 ft 274 kts 23°
2026-04-30 09:57 30.30537 103.83712 5751 ft 270 kts 23°
2026-04-30 09:57 30.32264 103.84513 5475 ft 265 kts 23°
2026-04-30 09:57 30.33968 103.85304 5077 ft 257 kts 23°
2026-04-30 09:58 30.35600 103.86061 4596 ft 252 kts 23°
2026-04-30 09:58 30.37219 103.86813 4238 ft 246 kts 23°
2026-04-30 09:58 30.38783 103.87541 4227 ft 238 kts 22°
2026-04-30 09:58 30.40295 103.88244 4051 ft 231 kts 22°
2026-04-30 09:59 30.43277 103.89632 3458 ft 228 kts 22°
2026-04-30 09:59 30.46085 103.90938 2884 ft 207 kts 22°
2026-04-30 10:00 30.48726 103.92166 2369 ft 204 kts 22°
2026-04-30 10:00 30.50039 103.92778 2105 ft 203 kts 22°
2026-04-30 10:01 30.52541 103.93948 2153 ft 191 kts 22°
2026-04-30 10:01 30.53849 103.94577 2454 ft 215 kts 22°
2026-04-30 10:01 30.55232 103.95212 3166 ft 212 kts 22°
2026-04-30 10:02 30.57065 103.97716 4157 ft 232 kts 85°
2026-04-30 10:02 30.56797 103.99602 4545 ft 243 kts 113°
2026-04-30 10:02 30.55755 104.01125 4842 ft 246 kts 146°
2026-04-30 10:02 30.54146 104.01782 4882 ft 248 kts 177°
2026-04-30 10:03 30.52446 104.01456 4909 ft 249 kts 195°
2026-04-30 10:03 30.50770 104.00906 4904 ft 249 kts 194°
2026-04-30 10:03 30.49090 104.00369 4898 ft 249 kts 194°
2026-04-30 10:03 30.47399 103.99843 4896 ft 249 kts 194°
2026-04-30 10:04 30.45732 103.99301 4889 ft 249 kts 199°
2026-04-30 10:04 30.44167 103.98484 4888 ft 250 kts 208°
2026-04-30 10:04 30.42727 103.97375 4880 ft 241 kts 216°
2026-04-30 10:04 30.41423 103.96219 4874 ft 230 kts 217°
2026-04-30 10:05 30.40185 103.95091 4877 ft 222 kts 217°
2026-04-30 10:05 30.39013 103.94016 4864 ft 207 kts 217°
2026-04-30 10:05 30.37923 103.93014 4864 ft 197 kts 217°
2026-04-30 10:05 30.36851 103.92027 4940 ft 195 kts 217°
2026-04-30 10:06 30.35776 103.91032 4984 ft 196 kts 218°
2026-04-30 10:06 30.34713 103.90054 4932 ft 195 kts 217°
2026-04-30 10:06 30.33641 103.89068 4909 ft 195 kts 218°
2026-04-30 10:06 30.32829 103.87838 4865 ft 191 kts 253°
2026-04-30 10:07 30.32971 103.86462 4824 ft 165 kts 300°
2026-04-30 10:07 30.33705 103.85542 4844 ft 153 kts 324°
2026-04-30 10:07 30.34630 103.84938 4866 ft 151 kts 346°
2026-04-30 10:07 30.35663 103.84830 4884 ft 151 kts
2026-04-30 10:08 30.36764 103.85060 4938 ft 173 kts 16°
2026-04-30 10:08 30.37981 103.85499 4943 ft 187 kts 21°
2026-04-30 10:08 30.39214 103.86023 4920 ft 189 kts 22°
2026-04-30 10:08 30.40436 103.86575 4882 ft 189 kts 23°
2026-04-30 10:09 30.41658 103.87141 4681 ft 189 kts 23°
2026-04-30 10:09 30.42881 103.87713 4434 ft 188 kts 23°
2026-04-30 10:09 30.44087 103.88278 4193 ft 185 kts 23°
2026-04-30 10:09 30.45231 103.88812 3941 ft 171 kts 23°
2026-04-30 10:10 30.46328 103.89325 3719 ft 167 kts 22°
2026-04-30 10:10 30.47406 103.89829 3517 ft 166 kts 22°
2026-04-30 10:10 30.48486 103.90334 3307 ft 166 kts 22°
2026-04-30 10:10 30.49554 103.90833 3100 ft 165 kts 22°
2026-04-30 10:11 30.50620 103.91329 2887 ft 165 kts 22°
2026-04-30 10:11 30.51683 103.91825 2670 ft 164 kts 22°
2026-04-30 10:11 30.52715 103.92306 2446 ft 155 kts 22°
2026-04-30 10:11 30.53675 103.92753 2241 ft 145 kts 22°
2026-04-30 10:12 30.54620 103.93194 2068 ft 145 kts 21°
2026-04-30 10:12 30.55546 103.93626 1887 ft 143 kts 21°
2026-04-30 10:12 30.56469 103.94051 1704 ft 140 kts 22°
2026-04-30 10:12 30.57302 103.94441 1689 ft 106 kts 22°
2026-04-30 10:13 30.57826 103.94689 1689 ft 57 kts 21°
2026-04-30 10:13 30.58050 103.94801 1690 ft 23 kts 28°
2026-04-30 10:13 30.58178 103.94928 1690 ft 26 kts 51°
2026-04-30 10:13 30.58234 103.95060 1690 ft 13 kts 114°
2026-04-30 10:14 30.58188 103.95155 1690 ft 12 kts 112°
2026-04-30 10:14 30.58188 103.95247 1690 ft 12 kts 41°
2026-04-30 10:14 30.58316 103.95330 1690 ft 7 kts 90°
2026-04-30 10:15 30.58274 103.95354 1690 ft 4 kts 178°
2026-04-30 10:15 30.58242 103.95356 1690 ft 4 kts 176°
2026-04-30 10:15 30.58239 103.95356 1690 ft 0 kts 176°